#timestamp,LO_Frequency,Hit,StdDev 
1513857615.2,286046997.2,N
1513857635.0,286046997.8,N
1513857636.0,286046997.8,N
1513857655.8,286046997.5,N
1513857675.6,286046998.9,N
1513857695.4,286046999.7,N
1513857715.3,286046998.4,N
1513857735.1,286046999.0,N
1513857755.8,286046997.4,N
1513857775.7,286046993.8,N
1513857795.5,286046991.7,N
1513857815.3,286046994.5,N
1513857835.2,286046990.1,N
1513857855.9,286046992.4,N
1513857875.7,286046990.1,N
1513857895.6,286046991.1,N
1513857915.4,286046989.0,N
1513857935.2,286046987.4,N
1513857955.1,286046986.7,N
1513857956.0,286046986.7,N
1513857975.8,286046985.9,N
1513857995.6,286046981.1,Y
1513858015.5,286046986.2,P
1513858035.3,286046985.5,P
1513858055.1,286046988.0,N
1513858075.9,286046987.0,Y
1513858095.7,286046997.6,P
1513858115.5,286046995.8,N
1513858135.4,286046993.7,N
1513858155.2,286046992.5,N
1513858175.0,286046993.4,N
1513858175.9,286046993.4,N
1513858195.8,286046997.6,N
1513858215.6,286046997.2,N
1513858235.4,286046995.3,N
1513858255.3,286046990.1,Y
1513858275.1,286046997.8,P
1513858276.0,286046997.8,N
1513858295.8,286046997.6,N
1513858315.6,286046997.2,N
1513858335.5,286046997.6,N
1513858355.3,286046996.9,N
1513858375.1,286046999.9,N
1513858395.9,286046999.3,N
1513858415.7,286046998.5,N
1513858435.5,286047000.2,N
1513858455.4,286047000.1,N
1513858475.2,286047002.3,N
1513858495.0,286046999.5,N
1513858495.9,286046999.5,N
1513858515.8,286046997.2,N
1513858535.6,286046995.1,N
1513858555.4,286046995.9,N
1513858575.3,286046992.9,Y
1513858595.1,286046997.6,P
1513858596.0,286046997.6,P
1513858615.8,286046998.1,P
1513858635.7,286047000.6,N
1513858655.5,286047000.0,N
1513858675.3,286047002.0,N
1513858695.1,286046998.2,N
1513858715.9,286047000.5,N
1513858735.7,286047005.5,Y
1513858755.5,286047005.0,P
1513858775.4,286047005.1,N
1513858795.2,286047001.5,N
1513858815.0,286047002.5,N
1513858815.9,286047002.5,N
1513858835.8,286046998.5,N
1513858855.6,286047001.3,N
1513858875.4,286047007.2,Y
1513858895.3,286047005.3,P
1513858915.1,286047004.6,N
1513858935.8,286047004.4,P
1513858955.7,286047001.7,N
1513858975.5,286047004.8,Y
1513858995.3,286046996.9,P
1513859015.2,286046996.8,N
1513859035.9,286046994.4,N
1513859055.7,286046996.4,N
1513859075.6,286046993.7,N
1513859095.4,286046996.8,N
1513859115.2,286046997.4,N
1513859135.1,286047000.5,N
1513859136.0,286047000.5,N
1513859155.8,286046996.5,N
1513859175.6,286046994.2,N
1513859195.5,286046990.1,Y
1513859215.3,286046993.2,P
1513859235.1,286046992.5,P
1513859255.9,286046994.5,N
1513859275.7,286046992.0,Y
1513859295.5,286046998.5,P
1513859315.4,286047001.2,N
1513859335.2,286046998.3,N
1513859355.0,286046998.8,N
1513859355.9,286046998.8,N
1513859375.8,286047004.0,N
1513859395.6,286047001.8,N
1513859415.4,286047000.6,N
1513859435.2,286047001.9,N
1513859455.1,286047004.9,N
1513859456.0,286047004.9,N
1513859475.8,286047003.9,N
1513859495.6,286047003.2,N
1513859515.5,286047004.1,N
1513859535.3,286047007.1,N
1513859555.1,286047005.8,N
1513859575.9,286047001.9,N
1513859595.7,286047004.2,N
1513859615.5,286046999.8,N
1513859635.4,286047000.2,N
1513859655.2,286047001.5,N
1513859675.0,286047003.9,N
1513859675.9,286047003.9,N
1513859695.7,286047002.6,N
1513859715.6,286047002.0,N
1513859735.4,286046999.8,N
1513859755.2,286047002.0,N
1513859775.1,286047003.6,N
1513859776.0,286047003.6,N
1513859795.8,286047001.8,N
1513859815.6,286047000.5,N
1513859835.5,286046999.9,N
1513859855.3,286046998.7,N
1513859875.1,286046997.9,N
1513859895.9,286046998.4,N
1513859915.7,286047002.8,N
1513859935.5,286047001.7,N
1513859955.4,286047009.0,Y
1513859975.2,286047007.9,P
1513859995.0,286047010.9,P
1513859995.9,286047010.9,P
1513860015.8,286047015.5,Y
1513860035.6,286047004.1,P
1513860055.4,286046999.7,N
1513860075.3,286047001.7,N
1513860095.1,286047004.7,N
1513860096.0,286047004.7,N
1513860115.8,286047005.6,N
1513860135.7,286047005.8,N
1513860155.5,286047010.3,Y
1513860175.3,286047010.2,P
1513860195.2,286047010.4,P
1513860215.9,286047009.8,P
1513860235.7,286047012.1,Y
1513860255.6,286047007.2,P
1513860275.4,286047004.9,P
1513860295.2,286047006.0,P
1513860315.1,286047003.6,N
1513860316.0,286047003.6,N
1513860335.8,286047001.9,N
1513860355.6,286047001.6,N
1513860375.4,286047003.3,N
1513860395.3,286047004.7,N
1513860415.1,286047003.5,N
1513860435.8,286047002.0,N
1513860455.7,286047002.0,N
1513860475.5,286046999.9,N
1513860495.3,286047000.6,N
1513860515.2,286047004.2,N
1513860535.9,286047001.5,N
1513860555.7,286047004.0,N
1513860575.6,286047000.2,N
1513860595.4,286046998.4,N
1513860615.2,286046997.2,N
1513860635.1,286047000.7,N
1513860636.0,286047000.7,N
1513860655.8,286046996.8,N
1513860675.6,286046993.4,N
1513860695.5,286046993.1,N
1513860715.3,286046997.9,N
1513860735.1,286046997.0,N
1513860755.8,286046994.5,N
1513860775.7,286046994.2,N
1513860795.5,286046994.4,N
1513860815.3,286046994.6,N
1513860835.2,286046992.6,N
1513860855.9,286046992.6,N
1513860875.7,286046990.2,N
1513860895.6,286046992.5,N
1513860915.4,286046994.3,N
1513860935.2,286046995.1,N
1513860955.1,286046994.0,N
1513860956.0,286046994.0,N
1513860975.8,286046993.6,N
1513860995.6,286046993.2,N
1513861015.5,286046992.9,N
1513861035.3,286046990.1,N
1513861055.1,286046992.0,N
1513861075.9,286046989.0,N
1513861095.7,286046987.1,Y
1513861115.5,286046991.4,P
1513861135.4,286046991.2,P
1513861155.2,286046991.6,P
1513861175.0,286046991.6,Y
1513861175.9,286046991.6,P
1513861195.8,286046998.3,P
